SB KEPS @ AMSAT $ORB13199.N 2Line Orbital Elements 13199.AMSAT
HR AMSAT ORBITAL ELEMENTS FOR AMATEUR SATELLITES IN NASA FORMAT FROM WA5QGD FORT WORTH,TX July 18, 2013 BID: ORB13199.N
DECODE 2-LINE ELSETS WITH THE FOLLOWING KEY: 1 AAAAAU 00 0 0 BBBBB.BBBBBBBB .CCCCCCCC 00000-0 00000-0 0 DDDZ 2 AAAAA EEE.EEEE FFF.FFFF GGGGGGG HHH.HHHH III.IIII JJ.JJJJJJJJKKKKKZ KEY: A-CATALOGNUM B-EPOCHTIME C-DECAY D-ELSETNUM E-INCLINATION F-RAAN G-ECCENTRICITY H-ARGPERIGEE I-MNANOM J-MNMOTION K-ORBITNUM Z-CHECKSUM
TO ALL RADIO AMATEURS BT
AO-07 1 07530U 74089B 13199.07890928 -.00000044 00000-0 -45058-5 0 7310 2 07530 101.4327 187.4657 0011521 226.2094 222.4972 12.53597346769654 FO-29 1 24278U 96046B 13198.16220135 .00000014 00000-0 46906-4 0 1569 2 24278 098.5536 252.7145 0351532 086.5585 335.6596 13.53003402835366 SO-33 1 25509U 98061B 13198.58636773 .00000275 00000-0 44261-4 0 5409 2 25509 031.4304 255.5027 0350950 064.0730 083.6639 14.29098473769246 RS-22 1 27939U 03042A 13199.74790690 .00000581 00000-0 11794-3 0 5955 2 27939 097.8006 025.9486 0014494 086.6188 273.6694 14.64512431523913 VO-52 1 28650U 05017B 13199.07522696 .00000786 00000-0 99931-4 0 4760 2 28650 097.5677 216.0935 0026445 175.6582 260.0801 14.83988178443662 HO-68 1 36122U 09072B 13199.74478857 -.00000044 00000-0 00000 0 0 7339 2 36122 100.3034 255.9972 0007212 283.3971 076.6337 13.16305578172563 UO-11 1 14781U 84021B 13199.72867446 .00000330 00000-0 49371-4 0 2338 2 14781 097.9008 260.5869 0009320 177.6079 182.5180 14.80949483578604 AO-16 1 20439U 90005D 13198.89536133 .00000048 00000-0 33562-4 0 7951 2 20439 098.4718 138.2114 0011990 071.2923 001.9350 14.32189273226638 LO-19 1 20442U 90005G 13199.83416263 .00000041 00000-0 30921-4 0 7309 2 20442 098.4412 140.8131 0012787 059.5547 357.2605 14.32399681226969 AO-27 1 22825U 93061C 13199.76486209 .00000034 00000-0 30421-4 0 4337 2 22825 098.6195 143.4583 0008389 187.7880 203.0156 14.29576558 33144 IO-26 1 22826U 93061D 13199.82614965 .00000041 00000-0 32899-4 0 1894 2 22826 098.6137 143.7992 0009035 181.6391 198.3658 14.29862088 33281 GO-32 1 25397U 98043D 13198.83371338 -.00000004 00000-0 16371-4 0 1155 2 25397 098.4173 165.2624 0001489 155.7104 235.5197 14.23350008780307 NO-44 1 26931U 01043C 13199.02871604 -.00000019 00000-0 24750-4 0 3740 2 26931 067.0513 180.0027 0007953 276.1640 169.4943 14.29941806615836 SO-50 1 27607U 02058C 13199.75419772 .00000259 00000-0 60979-4 0 1186 2 27607 064.5569 168.0333 0041329 153.5738 267.0242 14.73000864568368 CO-55 1 27844U 03031E 13199.54739216 .00000116 00000-0 73159-4 0 6952 2 27844 098.7011 208.1640 0010501 153.1921 352.8861 14.21242999521186 CO-57 1 27848U 03031J 13199.55389676 .00000095 00000-0 63925-4 0 6415 2 27848 098.7097 207.6991 0010276 158.6545 347.4253 14.20966100521112 AO-51 1 28375U 04025K 13198.86348810 .00000061 00000-0 31276-4 0 6072 2 28375 098.2033 153.0957 0082066 283.3563 109.6395 14.41140410475755 CP3 1 31129U 07012N 13197.99193801 .00000454 00000-0 11210-3 0 5051 2 31129 097.8990 188.9493 0099087 335.4004 088.6435 14.53731495331322 CO-65 1 32785U 08021C 13199.11803905 .00000783 00000-0 10028-3 0 6861 2 32785 097.7495 255.7690 0014213 199.9745 193.1735 14.83980849282462 PRISM 1 33493U 09002B 13199.72546820 .00002870 00000-0 33238-3 0 9944 2 33493 098.2214 357.7049 0019452 090.3455 269.9989 14.86200607242602 SOHLA-1 1 33496U 09002E 13199.79361762 .00000217 00000-0 44161-4 0 980 2 33496 098.1386 315.7342 0006150 209.9029 300.6017 14.70327232240510 SO-67 1 35870U 09049F 13199.75554260 .00005183 00000-0 19538-3 0 2485 2 35870 097.1896 227.3792 0001647 146.8257 339.0760 15.27483625213072 TISAT-1 1 36799U 10035E 13199.75368492 .00001926 00000-0 24080-3 0 2673 2 36799 098.0340 284.6336 0013804 331.0325 029.0116 14.83465358163258 STUDSAT 1 36801U 10035G 13199.16413613 .00004507 00000-0 48717-3 0 6549 2 36801 098.0455 287.4728 0010013 309.1568 081.1477 14.88799206163323 ALMASAT-1 1 38078U 12006B 13199.84049726 .00019474 00000-0 49397-3 0 4454 2 38078 069.4696 127.4764 0687259 106.5694 261.1905 14.26298158 73759 XATCOBEO 1 38082U 12006F 13199.81331860 .00062506 35411-5 12006-2 0 3334 2 38082 069.4688 099.0662 0555893 090.9563 275.5224 14.59952511 74531 SOMP 1 39135U 13015F 13198.81403694 .00003863 00000-0 31819-3 0 1906 2 39135 064.8778 112.3930 0010149 203.3052 194.2371 15.00484136 13421 CUBEBUG-1 1 39153U 13018D 13199.10648314 .00000991 00000-0 14945-3 0 2295 2 39153 098.0732 274.8553 0018026 349.5259 010.5581 14.76507761 12243 ESTCUBE-1 1 39161U 13021C 13199.76915256 .00000905 00000-0 16257-3 0 1979 2 39161 098.1258 277.8592 0010660 018.4122 341.7462 14.69026388 10630 NOAA-10 1 16969U 86073A 13199.53328481 .00000050 00000-0 37584-4 0 4308 2 16969 098.5442 226.6875 0013143 149.8459 358.7441 14.27652244396415 NOAA-11 1 19531U 88089A 13199.27618066 .00000049 00000-0 47414-4 0 4386 2 19531 098.7103 281.5753 0011771 167.7383 229.0225 14.15021671280529 NOAA-12 1 21263U 91032A 13199.50645204 .00000037 00000-0 34322-4 0 9031 2 21263 098.6959 224.6428 0014978 127.1817 044.1875 14.25576743153019 MET-3/5 1 21655U 91056A 13199.77647567 -.00000398 00000-0 -10672-2 0 7394 2 21655 082.5532 231.9747 0014163 055.3813 304.8643 13.17051962 54090 MET-2/21 1 22782U 93055A 13199.16480279 .00000011 00000-0 -35105-5 0 7926 2 22782 082.5479 078.3465 0023713 121.5473 047.6248 13.83709761 3920 OKEAN-4 1 23317U 94066A 13199.83128472 .00000634 00000-0 71931-4 0 2721 2 23317 082.5382 020.1715 0022621 120.8491 070.2863 14.84543603 13637 NOAA-14 1 23455U 94089A 13199.49385428 .00000029 00000-0 38607-4 0 3853 2 23455 098.8026 283.4580 0008412 266.9666 163.6872 14.13913435956793 NOAA-15 1 25338U 98030A 13199.79776576 .00000249 00000-0 10575-3 0 8061 2 25338 098.7261 189.8291 0011535 041.0914 319.1620 14.25244436789357 RESURS 1 25394U 98043A 13199.05476601 -.00000023 00000-0 80332-5 0 4238 2 25394 098.3642 173.4180 0002330 132.4428 269.2264 14.24333454780754 FENGYUN1 1 25730U 99025A 13199.47699906 .00000201 00000-0 13734-3 0 9191 2 25730 098.8789 158.6060 0024519 324.0222 184.1857 14.10578824730453 OKEAN-0 1 25860U 99039A 13199.80584044 .00000260 00000-0 46468-4 0 9975 2 25860 097.9928 161.8365 0001948 086.4375 001.1142 14.74645704753019 NOAA-16 1 26536U 00055A 13199.69743520 .00000160 00000-0 85971-4 0 2883 2 26536 099.0398 252.7664 0011148 050.0791 310.1834 14.12896811661027 NOAA-17 1 27453U 02032A 13199.80269765 .00000160 00000-0 68874-4 0 2014 2 27453 098.3118 212.2034 0012728 074.4645 285.8428 14.24604819575224 NOAA-18 1 28654U 05018A 13199.48923455 .00000180 00000-0 12371-3 0 6906 2 28654 099.1021 168.1600 0015387 119.3906 031.0943 14.11839138420470 NOAA-19 1 33591U 09005A 13199.51148925 -.00000034 00000-0 58982-5 0 8706 2 33591 098.9044 141.3315 0013673 346.3539 144.3926 14.11528162228910 HUBBLE 1 20580U 90037B 13199.79012444 .00001182 00000-0 71807-4 0 2844 2 20580 028.4709 065.6327 0003268 331.8078 117.4757 15.03774398 74454 ISS 1 25544U 98067A 13199.83963120 .00009596 00000-0 17644-3 0 2138 2 25544 051.6503 311.4804 0004959 195.4743 254.6791 15.49909686839611 CO-58 1 28895U 05043F 13199.58259091 .00000344 00000-0 78655-4 0 5257 2 28895 097.8666 053.3684 0016980 347.6176 012.4606 14.61168685411521 FALCON 1 30776U 07006E 13199.80641777 .00004197 00000-0 24875-3 0 6547 2 30776 035.4318 008.1089 0002024 246.4544 240.6497 15.10961222350203 MAST 1 31126U 07012K 13199.02629529 .00000283 00000-0 72963-4 0 8040 2 31126 097.8827 193.1907 0091853 317.1097 074.6939 14.54622576331805 CAPE1 1 31130U 07012P 13198.47305511 .00000396 00000-0 99302-4 0 8079 2 31130 097.8997 189.0338 0099615 334.8576 024.7789 14.53552775331173 COMPASS 1 32787U 08021E 13199.72655749 .00001387 00000-0 16591-3 0 6784 2 32787 097.7510 257.4708 0014601 193.9963 166.0850 14.85651663282646 AAUSAT2 1 32788U 08021F 13199.11928271 .00001442 00000-0 17034-3 0 6629 2 32788 097.7519 257.5336 0014066 195.2321 164.8473 14.86123365282597 DO-64 1 32789U 08021G 13199.16610947 .00002944 00000-0 31949-3 0 6914 2 32789 097.7674 261.5385 0013800 187.7104 247.2599 14.88843600282733 CO-66 1 32791U 08021J 13198.85415895 .00000831 00000-0 10405-3 0 6565 2 32791 097.7506 255.9445 0015153 198.5457 273.6121 14.84760207282425 RS-30 1 32953U 08025A 13199.69223805 .00000010 00000-0 00000 0 0 402 2 32953 082.4995 048.5988 0018480 160.7834 199.3945 12.43035251233827 METEOR-M 1 35865U 09049A 13199.75110576 -.00000024 00000-0 84318-5 0 6324 2 35865 098.5996 251.3965 0002677 004.5290 355.5908 14.21889863198955 RS-38 1 35869U 09049E 13199.77895220 .00000023 00000-0 29656-4 0 5898 2 35869 098.5932 251.3290 0004811 353.7378 006.3736 14.22137146198982 JUGNU 1 37839U 11058B 13199.80860723 .00000333 00000-0 35889-4 0 4230 2 37839 019.9620 115.1804 0018864 271.6946 125.5357 14.12167419 91375 SRMSAT 1 37841U 11058D 13199.21851670 .00000323 00000-0 32537-4 0 4257 2 37841 019.9721 131.4257 0011803 217.1402 261.5519 14.10235709 91154 RAX-2 1 37853U 11061D 13198.65179541 .00003072 00000-0 23731-3 0 5431 2 37853 101.7097 066.4117 0233956 300.1805 136.4253 14.83915622 92964 AUBIESAT 1 37854U 11061E 13198.19713903 .00002355 00000-0 18061-3 0 5373 2 37854 101.7117 066.6763 0233998 300.1132 177.5853 14.84661774 92910 HRBE 1 37855U 11061F 13199.15753432 .00002220 00000-0 17203-3 0 5415 2 37855 101.7131 067.8221 0234851 297.7826 209.2578 14.84312880 93042 RS-39 1 38051U 11062C 13199.15845027 .00015755 00000-0 48804-3 0 6135 2 38051 051.6343 060.9886 0011255 024.0706 069.9369 15.33552282 82537 E-STAR 1 38079U 12006C 13199.76896238 .00054618 00000-0 11109-2 0 2898 2 38079 069.4757 106.7644 0597720 095.2238 347.7678 14.49672418 74317 GOLIAT 1 38085U 12006J 13199.73942021 .00040392 30839-5 84197-3 0 2221 2 38085 069.4714 109.2601 0608261 096.4947 270.5791 14.47371818 74240 HORYU-2 1 38340U 12025D 13198.84949729 .00001323 00000-0 22367-3 0 5495 2 38340 098.2166 146.7713 0012812 150.7667 209.4227 14.71030123 62621 RS-40 1 38736U 12041D 13198.82298282 .00000010 00000-0 00000 0 0 3217 2 38736 082.4801 136.0284 0019916 261.0959 098.7868 12.42869158 44059 PROITERES 1 38756U 12047B 13199.20019030 .00000627 00000-0 10284-3 0 9466 2 38756 098.2514 276.8129 0012965 014.0741 346.0832 14.74272195 45967 RAIKO 1 38852U 98067CN 13199.61956003 .00425996 85023-4 99214-3 0 2830 2 38852 051.6319 283.7203 0006347 007.0663 353.0433 15.96458130 44865 FITSAT 1 1 38853U 98067CP 13184.86912902 .06638326 12312-4 50483-3 0 3153 2 38853 051.6252 351.6077 0011722 245.9321 114.2104 16.39337660 42708 TechEdSat 1 38854U 98067CQ 13124.93253577 .11592855 12481-4 94246-3 0 2908 2 38854 051.6449 297.0261 0010505 310.8629 049.0629 16.38844728 33294 F 1 1 38855U 98067CR 13129.77714356 .27424026 12535-4 30797-3 0 2871 2 38855 051.5085 272.4145 0008326 194.2908 166.5495 16.49710473 33949 WeWish 1 38856U 98067CS 13069.98095549 .16701328 12537-4 10063-2 0 2487 2 38856 051.6166 215.0521 0008325 316.0438 044.8765 16.41348316 24586 OSSI-1 1 39131U 13015B 13188.41684431 .01502874 74059-5 44818-3 0 85 2 39131 064.8841 114.8425 0051126 026.6892 350.0589 16.22925119 12374 BEESAT-3 1 39134U 13015E 13199.81702903 .00004134 00000-0 33891-3 0 2276 2 39134 064.8774 109.2265 0009944 203.3078 222.6691 15.00557192 13571 BEESAT-2 1 39136U 13015G 13198.23592964 .00003805 00000-0 31349-3 0 2064 2 39136 064.8783 114.1997 0010072 203.5120 318.0694 15.00495388 13339 /EX